DateTime,F1_A11,F1_S11,BsB_S11,BsG_S11,BsR_S11,BbsB_S11,BbsG_S11,BbsR_S11,BaB_A11,BaG_A11,BaR_A11,T_S11,U_S11,P_S11,T1_A11
2016-05-17T00:00:00Z,0000380,21000600,,,,,,,,,,26.2,00.0,0668.2,34.8
2016-05-17T00:01:00Z,0000380,21000600,,,,,,,,,,26.2,00.0,0668.2,34.8
2016-05-17T00:02:00Z,0000380,21000600,,,,,,,,,,26.2,00.0,0668.2,34.8
2016-05-17T00:03:00Z,0000380,61000600,,,,,,,,,,26.2,00.0,0668.2,34.8
2016-05-17T00:04:00Z,0000380,41000600,0002.43,0002.07,0000.73,0000.27,0000.25,0000.13,0000.24,0000.43,0000.36,26.2,00.0,0668.9,34.8
2016-05-17T00:05:00Z,0000380,01000600,0002.75,0000.90,0000.75,0000.09,0000.20,-000.02,0000.56,0000.23,0000.12,26.2,00.0,0669.0,34.8
2016-05-17T00:06:00Z,0000380,01000600,0002.08,0001.47,0000.90,0000.32,0000.11,-000.02,-000.13,0000.27,-000.10,26.2,00.0,0669.0,34.8
2016-05-17T00:07:00Z,0000380,01000600,0002.23,0001.24,0001.18,-000.09,-000.02,0000.11,-000.01,-000.01,0000.13,26.2,00.1,0669.0,34.8
2016-05-17T00:08:00Z,0000380,01000600,0002.66,0001.32,0000.91,-000.22,0000.14,-000.13,0000.15,0000.18,0000.16,26.2,00.0,0669.1,34.8
2016-05-17T00:09:00Z,0000380,01000600,0001.96,0001.36,0000.45,0000.39,0000.24,-000.27,0000.31,0000.29,0000.01,26.2,00.0,0669.1,34.8
2016-05-17T00:10:00Z,0000380,01000600,0002.55,0001.71,0000.94,-000.02,0000.16,-000.09,0000.60,0000.12,0000.61,26.3,00.1,0669.1,34.8
2016-05-17T00:11:00Z,0000380,01000600,0002.95,0001.42,0000.75,0000.28,0000.20,0000.35,0000.12,0000.33,-000.18,26.3,00.1,0669.1,34.8
2016-05-17T00:12:00Z,0000380,01000600,0002.81,0001.77,0000.75,0000.30,0000.30,0000.02,0000.10,0000.00,0000.15,26.3,00.0,0669.1,34.8
2016-05-17T00:13:00Z,0000380,01000600,0002.57,0001.96,0001.09,0000.24,0000.24,0000.21,0000.28,0000.18,0000.09,26.3,00.0,0669.0,34.8
2016-05-17T00:14:00Z,0000380,01000600,0002.69,0001.99,0000.95,0000.39,0000.13,-000.19,0000.30,0000.36,0000.39,26.3,00.0,0669.0,34.8
2016-05-17T00:15:00Z,0000380,01000600,0002.99,0002.18,0001.12,-000.35,0000.03,0000.08,0000.21,0000.33,-000.03,26.3,00.0,0669.0,34.8
2016-05-17T00:16:00Z,0000380,01000600,0003.08,0001.45,0000.59,0000.63,0000.52,-000.09,0000.32,0000.20,0000.36,26.3,00.0,0669.0,34.8
2016-05-17T00:17:00Z,0000380,01000600,0001.63,0002.00,0001.07,-000.09,0000.33,-000.03,-000.13,0000.08,-000.06,26.3,00.0,0669.0,34.8
2016-05-17T00:18:00Z,0000380,01000600,0001.91,0001.60,0000.64,-000.06,0000.46,-000.06,0000.35,-000.02,0000.24,26.3,00.0,0669.1,34.8
2016-05-17T00:19:00Z,0000380,01000600,0002.70,0001.57,0000.50,0000.63,0000.28,0000.03,0000.21,0000.36,0000.21,26.3,00.0,0669.0,34.8
2016-05-17T00:20:00Z,0000380,01000600,0002.13,0001.44,0001.24,-000.21,0000.42,0000.22,-000.07,0000.39,-000.36,26.3,00.0,0669.0,34.8
2016-05-17T00:21:00Z,0000380,01000600,0002.49,0001.88,0000.91,0000.11,-000.06,-000.14,0000.53,-000.02,0000.19,26.3,00.0,0669.0,34.8
2016-05-17T00:22:00Z,0000380,01000600,0002.45,0002.14,0001.16,0000.05,0000.27,0000.08,0000.44,0000.37,0000.47,26.3,00.0,0669.0,34.8
2016-05-17T00:23:00Z,0000380,01000600,0003.44,0001.71,0001.27,0000.16,0000.09,-000.02,-000.13,-000.03,0000.17,26.3,00.0,0669.0,34.8
2016-05-17T00:24:00Z,0000380,01000600,0001.48,0001.63,0000.65,0000.41,0000.16,0000.08,0000.11,0000.26,-000.08,26.3,00.0,0669.0,34.8
2016-05-17T00:25:00Z,0000380,01000600,0002.83,0001.74,0000.50,0000.27,0000.47,-000.14,0000.24,-000.00,-000.09,26.3,00.0,0669.0,34.8
2016-05-17T00:26:00Z,0000380,01000600,0002.18,0001.01,0001.22,0000.30,-000.20,0000.30,0000.30,0000.13,0000.56,26.3,00.0,0669.0,34.8
2016-05-17T00:27:00Z,0000380,01000600,0002.20,0001.45,0000.46,0000.52,-000.02,-000.02,0000.27,0000.76,0000.31,26.3,00.0,0669.0,34.8
2016-05-17T00:28:00Z,0000380,01000600,0002.63,0001.14,0000.79,0000.55,0000.06,0000.08,0000.55,-000.04,0000.43,26.3,00.0,0669.0,34.8
2016-05-17T00:29:00Z,0000380,01000600,0002.48,0001.36,0000.56,0000.51,0000.02,-000.35,-000.03,0000.08,0000.13,26.3,00.0,0669.0,34.8
2016-05-17T00:30:00Z,0000380,01000600,0002.66,0001.07,0001.12,-000.22,0000.33,0000.09,0000.16,0000.16,-000.58,26.3,00.0,0669.0,34.7
2016-05-17T00:31:00Z,0000380,01000600,0002.75,0001.56,0000.66,0000.16,0000.33,0000.36,0000.34,0000.31,0000.88,26.3,00.0,0669.0,34.7
2016-05-17T00:32:00Z,0000380,01000600,0002.65,0001.13,0001.37,0000.14,0000.00,0000.11,0000.45,0000.16,-000.15,26.3,00.0,0669.0,34.7
2016-05-17T00:33:00Z,0000380,01000600,0002.21,0001.40,0000.63,0000.36,0000.27,0000.14,0000.12,0000.08,0000.29,26.3,00.0,0669.0,34.7
2016-05-17T00:34:00Z,0000380,01000600,0002.16,0001.41,0000.84,0000.38,0000.58,0000.06,0000.13,0000.17,-000.07,26.2,00.0,0669.0,34.7
2016-05-17T00:35:00Z,0000380,01000600,0002.57,0000.88,0000.74,0000.32,0000.39,-000.24,0000.24,0000.11,-000.04,26.3,00.0,0669.0,34.7
2016-05-17T00:36:00Z,0000380,01000600,0002.28,0001.49,0001.34,0000.81,0000.35,0000.17,0000.11,0000.29,0000.12,26.3,00.0,0669.0,34.7
2016-05-17T00:37:00Z,0000380,01000600,0002.55,0001.40,0001.28,0000.03,-000.03,-000.06,0000.38,0000.17,0000.00,26.3,00.0,0669.0,34.7
2016-05-17T00:38:00Z,0000380,01000600,0002.56,0001.59,0000.69,0000.69,0000.20,0000.38,0000.05,0000.03,0000.16,26.2,00.0,0669.0,34.7
2016-05-17T00:39:00Z,0000380,01000600,0001.94,0001.35,0000.47,-000.11,0000.03,0000.08,0000.25,0000.24,0000.15,26.3,00.0,0669.0,34.7
2016-05-17T00:40:00Z,0000380,01000600,0002.37,0001.88,0000.59,0000.14,0000.33,0000.09,0000.15,0000.16,0000.25,26.3,00.0,0669.0,34.7
2016-05-17T00:41:00Z,0000380,01000600,0002.53,0001.13,0001.04,-000.02,0000.30,0000.16,0000.10,0000.23,-000.06,26.3,00.0,0669.0,34.7
2016-05-17T00:42:00Z,0000380,01000600,0002.36,0001.73,0000.75,0000.68,0000.05,-000.17,0000.11,0000.07,0000.13,26.3,00.0,0669.0,34.7
2016-05-17T00:43:00Z,0000380,01000600,0003.63,0001.82,0001.12,0000.47,0000.58,0000.22,0000.29,0000.26,0000.20,26.3,00.0,0669.0,34.7
2016-05-17T00:44:00Z,0000380,01000600,0002.36,0001.33,0000.76,0000.27,0000.27,-000.24,0000.16,0000.03,0000.05,26.3,00.0,0669.0,34.7
2016-05-17T00:45:00Z,0000380,01000600,0001.56,0001.49,0001.25,0000.13,0000.35,-000.05,0000.36,0000.38,0000.66,26.3,00.0,0668.9,34.8
2016-05-17T00:46:00Z,0000380,01000600,0002.46,0001.48,0000.93,0000.39,0000.41,0000.06,0000.32,0000.05,-000.23,26.3,00.0,0669.0,34.8
2016-05-17T00:47:00Z,0000380,01000600,0003.01,0001.52,0000.96,0000.17,0000.60,0000.05,0000.12,0000.26,-000.19,26.3,00.0,0669.0,34.8
2016-05-17T00:48:00Z,0000380,01000600,0003.15,0001.58,0000.80,0000.43,0000.49,0000.06,-000.02,0000.13,0000.46,26.3,00.0,0669.0,34.8
2016-05-17T00:49:00Z,0000380,01000600,0001.36,0001.85,0001.08,0000.14,0000.19,-000.03,0000.25,0000.11,-000.08,26.3,00.0,0669.0,34.8
2016-05-17T00:50:00Z,0000380,01000600,0003.30,0001.79,0001.09,0000.32,0000.41,-000.14,0000.29,0000.26,-000.01,26.3,00.0,0669.0,34.8
2016-05-17T00:51:00Z,0000380,01000600,0002.31,0001.42,0000.74,-000.22,0000.33,0000.21,0000.30,0000.29,0000.34,26.3,00.0,0669.0,34.8
2016-05-17T00:52:00Z,0000380,01000600,0002.12,0001.78,0000.73,0000.00,0000.35,0000.19,0000.08,0000.06,0000.36,26.3,00.0,0668.9,34.8
2016-05-17T00:53:00Z,0000380,01000600,0001.56,0001.06,0001.03,0000.41,0000.35,0000.35,0000.37,0000.31,0000.23,26.3,00.0,0668.9,34.8
2016-05-17T00:54:00Z,0000380,01000600,0002.18,0001.06,0000.83,0000.39,0000.31,0000.05,-000.09,0000.07,0000.09,26.3,00.0,0668.9,34.8
2016-05-17T00:55:00Z,0000380,01000600,0002.88,0001.37,0000.92,0000.38,0000.41,0000.21,0000.39,0000.14,0000.29,26.3,00.0,0668.9,34.8
2016-05-17T00:56:00Z,0000380,01000600,0002.42,0001.67,0001.33,0000.24,0000.55,0000.16,0000.15,0000.25,-000.23,26.3,00.0,0668.9,34.8
2016-05-17T00:57:00Z,0000380,41000600,,,,,,,,,,,,0668.8,34.8
2016-05-17T00:58:00Z,0000380,61000600,,,,,,,,,,26.2,00.0,0668.0,34.8
2016-05-17T00:59:00Z,0000380,21000600,,,,,,,,,,26.2,00.0,0668.0,34.8
2016-05-17T01:00:00Z,0000380,21000600,,,,,,,,,,26.2,00.0,0668.0,34.8
2016-05-17T01:01:00Z,0000380,21000600,,,,,,,,,,26.2,00.0,0668.0,34.8
2016-05-17T01:02:00Z,0000380,21000600,,,,,,,,,,26.2,00.0,0668.0,34.8
2016-05-17T01:03:00Z,0000380,61000600,,,,,,,,,,26.2,00.0,0668.0,34.8
2016-05-17T01:04:00Z,0000380,41000600,0002.78,0001.44,0001.01,0000.33,0000.47,0000.43,0000.01,0000.19,-000.47,26.4,00.0,0668.8,34.8
2016-05-17T01:05:00Z,0000380,01000600,0002.66,0001.78,0001.06,0000.11,-000.05,0000.33,0000.48,0000.41,0000.75,26.4,00.0,0668.9,34.8
2016-05-17T01:06:00Z,0000380,01000600,0002.41,0001.93,0001.05,0000.30,0000.35,0000.38,0000.07,-000.08,-000.04,26.4,00.0,0668.8,34.8
2016-05-17T01:07:00Z,0000380,01000600,0001.73,0001.40,0001.48,-000.13,0000.17,0000.62,0000.11,0000.24,-000.02,26.5,00.0,0668.8,34.8
2016-05-17T01:08:00Z,0000380,01000600,0001.82,0002.18,0000.69,-000.05,0000.19,0000.22,0000.18,0000.22,-000.01,26.5,00.0,0668.8,34.8
2016-05-17T01:09:00Z,0000380,01000600,0002.73,0001.75,0001.24,0000.17,-000.17,0000.47,0000.50,0000.21,0000.45,26.5,00.0,0668.8,34.8
2016-05-17T01:10:00Z,0000380,01000600,0002.50,0001.71,0001.44,0000.30,0000.20,0000.16,0000.49,0000.16,0000.07,26.5,00.0,0668.8,34.8
2016-05-17T01:11:00Z,0000380,01000600,0002.44,0001.61,0000.81,0000.38,0000.63,0000.46,-000.10,0000.20,0000.17,26.5,00.0,0668.8,34.8
2016-05-17T01:12:00Z,0000380,01000600,0002.73,0001.99,0000.67,0000.25,-000.03,0000.13,0000.29,0000.21,0000.14,26.5,00.0,0668.8,34.8
2016-05-17T01:13:00Z,0000380,01000600,0003.28,0001.81,0000.85,0000.02,0000.31,0000.55,0000.32,0000.18,0000.12,26.5,00.0,0668.8,34.8
2016-05-17T01:14:00Z,0000380,01000600,0002.27,0001.52,0000.96,0000.40,0000.14,0000.33,0000.13,0000.25,0000.08,26.5,00.0,0668.8,34.8
2016-05-17T01:15:00Z,0000380,01000600,0002.28,0001.45,0001.21,0000.84,0000.22,0000.27,0000.09,0000.11,-000.10,26.5,00.0,0668.8,34.8
2016-05-17T01:16:00Z,0000380,01000600,0002.76,0001.94,0000.63,0000.16,0000.06,-000.05,0000.14,0000.11,0000.39,26.5,00.0,0668.8,34.8
2016-05-17T01:17:00Z,0000380,01000600,0002.67,0001.67,0001.07,0000.55,0000.44,0000.35,0000.28,0000.14,0000.21,26.5,00.0,0668.7,34.8
2016-05-17T01:18:00Z,0000380,01000600,0003.34,0001.52,0000.68,0000.47,0000.47,0000.36,0000.51,0000.41,-000.02,26.5,00.0,0668.7,34.8
2016-05-17T01:19:00Z,0000380,01000600,0002.11,0001.59,0001.14,0000.14,0000.31,0000.47,-000.03,-000.13,0000.18,26.5,00.0,0668.7,34.8
2016-05-17T01:20:00Z,0000380,01000600,0001.52,0002.03,0000.75,0000.25,0000.55,0000.38,0000.27,0000.50,0000.38,26.5,00.0,0668.7,34.8
2016-05-17T01:21:00Z,0000380,01000600,0002.38,0000.86,0000.89,0000.54,0000.13,0000.46,0000.05,-000.01,0000.12,26.5,00.0,0668.7,34.8
2016-05-17T01:22:00Z,0000380,01000600,0001.95,0001.10,0000.93,0000.16,0000.49,0000.22,0000.15,0000.20,-000.33,26.5,00.0,0668.7,34.8
2016-05-17T01:23:00Z,0000380,01000600,0002.68,0001.56,0001.30,-000.54,0000.14,0000.28,0000.28,0000.26,0000.46,26.5,00.0,0668.6,34.8
2016-05-17T01:24:00Z,0000380,01000600,0002.24,0002.56,0000.65,0000.27,0000.35,0000.36,0000.12,0000.08,0000.16,26.5,00.0,0668.6,34.8
2016-05-17T01:25:00Z,0000380,01000600,0002.63,0001.08,0000.99,0000.11,0000.98,0000.46,-000.10,0000.13,-000.29,26.5,00.0,0668.6,34.8
2016-05-17T01:26:00Z,0000380,01000600,0002.64,0001.85,0000.99,-000.28,0000.17,0000.08,0000.37,0000.15,0000.31,26.5,00.0,0668.6,34.8
2016-05-17T01:27:00Z,0000380,01000600,0002.11,0001.93,0000.72,0000.19,0000.13,0000.06,0000.23,0000.15,0000.38,26.5,00.0,0668.6,34.8
2016-05-17T01:28:00Z,0000380,01000600,0002.62,0001.13,0000.72,0000.38,0000.02,0000.22,0000.36,0000.11,0000.11,26.5,00.0,0668.6,34.8
2016-05-17T01:29:00Z,0000380,01000600,0001.73,0001.59,0000.93,-000.03,0000.55,0000.38,-000.11,0000.14,0000.15,26.5,00.0,0668.6,34.8
2016-05-17T01:30:00Z,0000380,01000600,0002.30,0001.26,0001.18,0000.24,0000.58,0000.44,0000.50,0000.21,-000.09,26.5,00.0,0668.6,34.8
2016-05-17T01:31:00Z,0000380,01000600,0001.68,0001.15,0001.20,0000.30,0000.47,0000.05,0000.15,0000.28,0000.35,26.5,00.0,0668.6,34.8
2016-05-17T01:32:00Z,0000380,01000600,0001.44,0002.12,0000.95,0000.32,0000.50,0000.32,0000.38,0000.03,-000.39,26.5,00.0,0668.5,34.8
2016-05-17T01:33:00Z,0000380,01000600,0002.10,0001.95,0000.79,-000.21,-000.05,0000.41,-000.05,0000.17,0000.31,26.5,00.0,0668.5,34.8
2016-05-17T01:34:00Z,0000380,01000600,0001.59,0001.40,0000.58,-000.05,0000.49,0000.59,0000.10,0000.35,0000.02,26.5,00.0,0668.5,34.8
2016-05-17T01:35:00Z,0000380,01000600,0002.03,0001.56,0000.86,0000.06,0000.19,0000.60,0000.33,-000.04,0000.19,26.5,00.0,0668.5,34.8
2016-05-17T01:36:00Z,0000380,01000600,0001.87,0000.36,0001.04,0000.22,0000.24,0000.60,0000.13,0000.23,0000.24,26.5,00.0,0668.5,34.8
2016-05-17T01:37:00Z,0000380,01000600,0001.53,0001.18,0000.53,0000.68,0000.49,0000.47,0000.06,0000.08,0000.20,26.5,00.0,0668.5,34.8
2016-05-17T01:38:00Z,0000380,01000600,0001.34,0001.97,0000.92,0001.17,0000.47,0000.17,0000.14,0000.21,0000.06,26.5,00.0,0668.5,34.8
2016-05-17T01:39:00Z,0000380,01000600,0001.11,0001.77,0000.81,0000.55,0000.30,0000.36,0000.02,-000.13,-000.02,26.5,00.0,0668.5,34.8
2016-05-17T01:40:00Z,0000380,01000600,0002.01,0000.80,0000.95,-000.06,0000.54,0000.16,0000.27,0000.31,-000.09,26.5,00.0,0668.5,34.8
2016-05-17T01:41:00Z,0000380,01000600,0001.74,0001.48,0001.08,0000.24,0000.22,0000.28,0000.22,0000.14,0000.46,26.5,00.0,0668.5,34.8
2016-05-17T01:42:00Z,0000380,01000600,0001.37,0001.14,0000.84,0000.74,0000.08,-000.17,0000.33,0000.18,0000.04,26.5,00.0,0668.4,34.8
2016-05-17T01:43:00Z,0000380,01000600,0001.36,0001.31,0000.53,0000.41,0000.47,0000.38,0000.12,0000.12,0000.19,26.5,00.0,0668.4,34.8
2016-05-17T01:44:00Z,0000380,01000600,0001.22,0000.86,0000.69,-000.36,0000.31,-000.06,0000.32,0000.10,0000.03,26.5,00.0,0668.4,34.8
2016-05-17T01:45:00Z,0000380,01000600,0001.60,0001.19,0001.06,-000.09,0000.06,0000.36,0000.10,0000.07,0000.14,26.5,00.0,0668.4,34.8
2016-05-17T01:46:00Z,0000380,01000600,0001.77,0001.09,0000.66,0000.73,0000.09,0000.25,0000.11,0000.24,0000.44,26.5,00.0,0668.4,34.8
2016-05-17T01:47:00Z,0000380,01000600,0000.85,0001.58,0000.83,-000.68,0000.16,0000.36,0000.37,0000.18,0000.00,26.5,00.0,0668.4,34.8
2016-05-17T01:48:00Z,0000380,01000600,0001.38,0001.54,0000.66,-000.03,0000.30,0000.57,0000.26,0000.16,-000.09,26.5,00.0,0668.4,34.8
2016-05-17T01:49:00Z,0000380,01000600,0001.13,0001.20,0000.79,0000.19,0000.22,0000.13,0000.01,0000.11,0000.17,26.5,00.0,0668.4,34.8
2016-05-17T01:50:00Z,0000380,01000600,0002.08,0001.66,0000.48,-000.14,0000.03,0000.51,0000.37,0000.07,-000.10,26.5,00.0,0668.4,34.8
2016-05-17T01:51:00Z,0000380,01000600,0001.98,0000.76,0000.41,0000.43,0000.49,0000.14,0000.02,0000.18,0000.35,26.4,00.0,0668.4,34.8
2016-05-17T01:52:00Z,0000380,01000600,0001.92,0001.57,0001.04,0000.03,0000.54,0000.24,0000.04,0000.23,-000.04,26.5,00.0,0668.4,34.8
2016-05-17T01:53:00Z,0000380,01000600,0002.87,0001.47,0000.92,0000.19,0000.22,0000.49,0000.23,0000.18,-000.42,26.4,00.0,0668.3,34.8
2016-05-17T01:54:00Z,0000380,01000600,0001.72,0001.65,0000.86,0000.65,0000.24,0000.24,0000.25,0000.30,0000.26,26.5,00.0,0668.3,34.8
2016-05-17T01:55:00Z,0000380,01000600,0001.07,0000.87,0001.12,-000.05,0000.57,0000.47,0000.05,-000.05,0000.36,26.4,00.0,0668.3,34.8
2016-05-17T01:56:00Z,0000380,01000600,0001.74,0001.48,0001.15,-000.44,0000.09,0000.68,0000.19,0000.16,0000.40,26.5,00.0,0668.3,34.8
2016-05-17T01:57:00Z,0000380,41000600,,,,,,,,,,,,0668.4,34.8
2016-05-17T01:58:00Z,0000380,61000600,,,,,,,,,,26.3,00.0,0667.5,34.8
2016-05-17T01:59:00Z,0000380,21000600,,,,,,,,,,26.3,00.0,0667.4,34.8
2016-05-17T02:00:00Z,0000380,21000600,,,,,,,,,,26.3,00.0,0667.4,34.8
2016-05-17T02:01:00Z,0000380,21000600,,,,,,,,,,26.3,00.0,0667.4,34.8
2016-05-17T02:02:00Z,0000380,21000600,,,,,,,,,,26.3,00.0,0667.4,34.8
2016-05-17T02:03:00Z,0000380,61000600,,,,,,,,,,26.4,00.0,0667.4,34.8
2016-05-17T02:04:00Z,0000380,41000600,0001.81,0001.53,0000.81,0000.73,0000.05,0000.11,0000.21,0000.07,0000.09,26.5,00.0,0668.2,34.8
2016-05-17T02:05:00Z,0000380,01000600,0001.74,0001.99,0000.15,0000.08,0000.54,0000.10,0000.25,0000.31,0000.67,26.5,00.0,0668.2,34.8
2016-05-17T02:06:00Z,0000380,01000600,0002.75,0002.06,0000.17,0001.03,0000.76,0000.03,0000.18,-000.01,-000.53,26.5,00.0,0668.2,34.8
2016-05-17T02:07:00Z,0000380,01000600,0002.55,0002.05,0000.85,0000.76,0000.58,0000.41,0000.21,0000.32,0000.32,26.5,00.0,0668.2,34.8
2016-05-17T02:08:00Z,0000380,01000600,0002.32,0001.64,0000.27,0000.43,0000.20,0000.24,0000.02,-000.07,-000.23,26.5,00.0,0668.2,34.8
2016-05-17T02:09:00Z,0000380,01000600,0002.54,0001.06,0000.43,0000.73,0000.33,0000.30,0000.38,0000.18,0000.20,26.5,00.0,0668.2,34.8
2016-05-17T02:10:00Z,0000380,01000600,0002.07,0001.53,0000.68,0001.42,0000.76,0000.27,-000.09,0000.19,0000.35,26.5,00.0,0668.2,34.8
2016-05-17T02:11:00Z,0000380,01000600,0001.92,0001.04,0000.44,0000.68,0000.38,-000.06,0000.26,0000.12,0000.02,26.5,00.0,0668.2,34.8
2016-05-17T02:12:00Z,0000380,01000600,0002.39,0000.97,0000.62,0000.08,0000.41,-000.06,0000.02,0000.26,0000.31,26.5,00.0,0668.2,34.8
2016-05-17T02:13:00Z,0000380,01000600,0002.11,0001.30,0000.23,0000.81,0000.27,0000.29,0000.35,0000.05,-000.08,26.5,00.0,0668.2,34.8
2016-05-17T02:14:00Z,0000380,01000600,0002.28,0001.42,0000.66,0000.33,0000.58,-000.13,0000.03,0000.30,0000.02,26.5,00.0,0668.1,34.8
2016-05-17T02:15:00Z,0000380,01000600,0002.82,0001.19,0000.53,0000.40,0000.49,0000.30,0000.22,0000.03,0000.06,26.5,00.0,0668.1,34.8
2016-05-17T02:16:00Z,0000380,01000600,0002.92,0001.68,0000.66,0000.74,0000.25,0000.10,0000.35,0000.27,0000.42,26.5,00.0,0668.1,34.8
2016-05-17T02:17:00Z,0000380,01000600,0003.22,0001.39,0000.54,-000.28,0000.00,-000.19,0000.17,-000.11,-000.21,26.5,00.0,0668.1,34.8
2016-05-17T02:18:00Z,0000380,01000600,0002.78,0001.32,0000.27,0000.25,0000.47,-000.06,0000.01,0000.31,0000.36,26.5,00.0,0668.1,34.8
2016-05-17T02:19:00Z,0000380,01000600,0001.64,0001.70,0000.61,0000.21,0000.54,-000.24,0000.06,0000.16,0000.08,26.5,00.0,0668.1,34.8
2016-05-17T02:20:00Z,0000380,01000600,0001.57,0001.79,0000.70,0001.31,0000.61,0000.08,0000.18,0000.24,-000.02,26.5,00.0,0668.1,34.8
2016-05-17T02:21:00Z,0000380,01000600,0001.73,0001.37,0000.56,0000.49,0000.19,-000.11,0000.34,0000.03,0000.36,26.5,00.0,0668.1,34.8
2016-05-17T02:22:00Z,0000380,01000600,0001.82,0001.56,0000.95,-000.14,0000.63,0000.41,0000.21,0000.13,0000.05,26.5,00.0,0668.1,34.8
2016-05-17T02:23:00Z,0000380,01000600,0002.10,0001.69,0000.60,0000.93,0000.57,0000.19,0000.28,0000.19,0000.08,26.5,00.0,0668.1,34.8
2016-05-17T02:24:00Z,0000380,01000600,0003.29,0001.27,0000.33,0000.38,0000.52,-000.17,0000.13,0000.17,-000.18,26.5,00.0,0668.1,34.8
2016-05-17T02:25:00Z,0000380,01000600,0002.96,0001.28,0000.58,0000.54,0000.39,0000.17,0000.06,0000.12,0000.67,26.5,00.0,0668.1,34.8
2016-05-17T02:26:00Z,0000380,01000600,0002.87,0001.99,0000.67,0000.92,0000.22,0000.22,0000.31,0000.20,-000.33,26.5,00.0,0668.0,34.8
2016-05-17T02:27:00Z,0000380,01000600,0002.80,0001.91,0000.89,0000.52,0000.72,0000.17,0000.14,0000.17,0000.32,26.5,00.0,0668.0,34.8
2016-05-17T02:28:00Z,0000380,01000600,0002.40,0000.96,0000.40,0000.30,0000.43,0000.13,0000.37,0000.18,-000.04,26.4,00.0,0668.0,34.8
2016-05-17T02:29:00Z,0000380,01000600,0002.25,0001.27,0000.67,0000.27,0000.33,0000.14,0000.24,0000.22,0000.40,26.4,00.0,0668.0,34.8
2016-05-17T02:30:00Z,0000380,01000600,0001.82,0001.43,0000.90,0000.73,0000.20,-000.30,0000.10,0000.04,-000.13,26.4,00.0,0668.0,34.7
2016-05-17T02:31:00Z,0000380,01000600,0001.97,0001.22,0000.84,0000.43,0000.33,-000.03,0000.04,0000.06,0000.25,26.4,00.0,0667.9,34.7
2016-05-17T02:32:00Z,0000380,01000600,0001.94,0001.00,0000.37,0000.30,0000.25,-000.02,0000.31,0000.13,-000.11,26.4,00.0,0667.9,34.7
2016-05-17T02:33:00Z,0000380,01000600,0002.37,0001.56,0000.66,0000.40,0000.44,0000.29,0000.08,0000.23,0000.15,26.4,00.0,0667.9,34.7
2016-05-17T02:34:00Z,0000380,01000600,0002.11,0001.65,0000.34,0000.51,0000.30,0000.06,0000.38,0000.24,0000.40,26.4,00.0,0667.8,34.7
2016-05-17T02:35:00Z,0000380,01010600,0002.80,0001.27,0000.36,0000.87,0000.39,0000.13,0000.21,0000.24,0000.09,26.4,00.0,0667.8,34.7
2016-05-17T02:36:00Z,0000380,01000600,0003.22,0001.74,0000.75,0000.55,0000.41,0000.16,0000.02,0000.19,0000.38,26.3,00.0,0667.8,34.7
2016-05-17T02:37:00Z,0000380,01000600,0002.43,0001.72,0000.64,0000.14,0000.63,-000.27,0000.45,0000.03,-000.31,26.3,00.0,0667.8,34.7
2016-05-17T02:38:00Z,0000380,01000600,0002.77,0001.64,0000.34,0000.57,0000.58,-000.27,0000.01,0000.10,0000.16,26.3,00.0,0667.8,34.7
2016-05-17T02:39:00Z,0000380,01000600,0002.43,0001.43,0001.07,0000.62,0000.43,0000.05,0000.39,0000.33,0000.06,26.3,00.0,0667.8,34.7
2016-05-17T02:40:00Z,0000380,01000600,0001.53,0001.46,0000.81,0000.90,0000.32,0000.41,0000.10,0000.09,0000.22,26.3,00.0,0667.8,34.7
2016-05-17T02:41:00Z,0000380,01000600,0003.75,0001.80,0000.55,0000.84,0000.85,0000.27,0000.10,0000.09,-000.16,26.3,00.0,0667.8,34.7
2016-05-17T02:42:00Z,0000380,01000600,0002.27,0002.03,0000.52,0000.76,0000.39,0000.00,0000.25,0000.41,0000.49,26.3,00.0,0667.8,34.7
2016-05-17T02:43:00Z,0000380,01000600,0002.81,0001.68,0000.55,0000.62,0000.38,0000.21,0000.09,-000.10,0000.28,26.3,00.0,0667.7,34.7
2016-05-17T02:44:00Z,0000380,01000600,0001.99,0001.76,0000.46,0000.24,0000.13,0000.46,-000.03,0000.13,-000.19,26.4,00.0,0667.7,34.7
2016-05-17T02:45:00Z,0000380,01000600,0002.38,0001.12,0000.34,0000.32,0000.49,0000.21,0000.54,0000.14,0000.12,26.3,00.0,0667.7,34.8
2016-05-17T02:46:00Z,0000380,01000600,0002.58,0002.19,0000.36,0000.36,0000.09,0000.02,-000.03,0000.34,0000.17,26.4,00.0,0667.7,34.8
2016-05-17T02:47:00Z,0000380,01000600,0002.10,0000.99,0000.33,0000.54,0000.28,-000.03,0000.42,0000.25,-000.08,26.3,00.0,0667.7,34.8
2016-05-17T02:48:00Z,0000380,01000600,0003.09,0001.58,0000.93,0000.70,0000.63,0000.14,0000.27,0000.19,0000.36,26.3,00.0,0667.7,34.8
2016-05-17T02:49:00Z,0000380,01000600,0002.49,0001.15,0000.77,0000.21,0000.05,0000.16,0000.36,0000.15,0000.17,26.3,00.0,0667.6,34.8
2016-05-17T02:50:00Z,0000380,01000600,0001.84,0002.12,0000.74,0001.20,0000.41,0000.38,-000.26,-000.01,-000.09,26.3,00.0,0667.6,34.8
2016-05-17T02:51:00Z,0000380,01000600,0002.91,0001.32,0000.39,0000.78,0000.46,0000.25,0000.31,0000.01,0000.18,26.4,00.0,0667.6,34.8
2016-05-17T02:52:00Z,0000380,01000600,0002.81,0001.09,0000.58,0000.74,0000.52,0000.21,0000.20,0000.32,0000.15,26.4,00.0,0667.6,34.8
2016-05-17T02:53:00Z,0000380,01000600,0001.77,0000.93,0000.91,0000.44,0000.38,0000.19,0000.09,0000.26,0000.22,26.4,00.0,0667.6,34.8
2016-05-17T02:54:00Z,0000380,01000600,0001.67,0001.86,0001.00,0000.78,0000.38,0000.21,0000.06,0000.09,0000.15,26.5,00.0,0667.5,34.8
2016-05-17T02:55:00Z,0000380,01000600,0001.78,0001.67,0000.61,0000.63,0000.73,0000.06,0000.19,0000.32,0000.21,26.5,00.0,0667.5,34.8
2016-05-17T02:56:00Z,0000380,01000600,0002.02,0002.29,0000.77,0000.81,0000.50,0000.40,0000.14,-000.08,0000.07,26.5,00.0,0667.5,34.8
2016-05-17T02:57:00Z,0000380,41000600,,,,,,,,,,,,0667.5,34.8
2016-05-17T02:58:00Z,0000380,61000600,,,,,,,,,,26.3,00.0,0666.6,34.8
2016-05-17T02:59:00Z,0000380,21000600,,,,,,,,,,26.3,00.0,0666.6,34.8
2016-05-17T03:00:00Z,0000380,21000600,,,,,,,,,,26.3,00.0,0666.5,34.8
2016-05-17T03:01:00Z,0000380,21000600,,,,,,,,,,26.3,00.0,0666.5,34.8
2016-05-17T03:02:00Z,0000380,21000600,,,,,,,,,,26.3,00.0,0666.5,34.8
2016-05-17T03:03:00Z,0000380,61000600,,,,,,,,,,26.4,00.0,0666.5,34.8
2016-05-17T03:04:00Z,0000380,41000600,0003.61,0002.00,0000.98,0000.29,0000.19,0000.29,0000.33,0000.16,0000.22,26.5,00.0,0667.2,34.8
2016-05-17T03:05:00Z,0000380,01000600,0002.92,0001.83,0000.79,0000.14,0000.36,0000.27,0000.41,0000.16,0000.22,26.5,00.0,0667.3,34.8
2016-05-17T03:06:00Z,0000380,01000600,0003.47,0002.11,0001.03,0000.29,0000.35,-000.11,0000.05,0000.22,-000.28,26.5,00.0,0667.3,34.8
2016-05-17T03:07:00Z,0000380,01000600,0002.56,0001.92,0001.13,0000.22,0000.28,0000.05,0000.14,0000.20,0000.06,26.5,00.0,0667.3,34.8
2016-05-17T03:08:00Z,0000380,01000600,0003.41,0001.89,0000.50,0000.25,-000.13,-000.17,0000.41,0000.03,0000.46,26.5,00.0,0667.3,34.8
2016-05-17T03:09:00Z,0000380,01000600,0002.98,0001.58,0001.02,0000.14,0000.68,0000.22,0000.07,0000.15,-000.02,26.5,00.0,0667.3,34.8
2016-05-17T03:10:00Z,0000380,01000600,0003.25,0001.71,0000.90,0000.44,0000.17,-000.05,-000.05,0000.12,0000.30,26.5,00.0,0667.3,34.8
2016-05-17T03:11:00Z,0000380,01000600,0003.28,0001.26,0000.66,-000.10,-000.14,0000.25,0000.05,0000.00,-000.07,26.5,00.0,0667.3,34.8
2016-05-17T03:12:00Z,0000380,01000600,0002.66,0001.42,0000.59,-000.29,0000.19,0000.11,0000.38,0000.40,0000.12,26.5,00.0,0667.3,34.8